Zurück zum Katalog

BREEZE-M R/B

AktivMEO
NORAD 36359·ROCKET BODY·🇷🇺 Russia

Gestartet Jan 28, 2010 von Baikonur Cosmodrome

Loading…

Nächste Überflüge (nächste 24 Stunden)

TLE

AktuellSource: Space-Track

Epoche: Sep 14, 2026, 12:17 UTC

1 36359U 10002B   26257.51230198 -.00000216  00000-0  00000-0 0  9990
2 36359  11.0461  35.6108 0210764 257.5515 289.2936  1.04041315 63157

Verfolge BREEZE-M R/B in Echtzeit mit AllMySat

Download on the App Store